Vorticity
14 14 14 13 12 10 8 7 7 6 6 7 7 8 9 10 10 10 10 10 10 9 9 9 8 8 7 7 7 7 7 7 7 7 7 8 8 8 8 8 8 8 8 8 8 8 9 9 9 9 9 8 8 8 8 8 8 7 7 7 7 6 6 6 5 5 4 4 4 4 4 5 6 7 8 10 11 12 13 15 16 17 18 18 19 19
14 13 12 11 9 7 6 6 6 7 8 9 9 10 10 10 10 10 10 9 9 8 8 7 7 7 6 6 6 6 7 7 7 7 8 8 8 8 8 8 8 8 8 8 8 8 9 9 9 9 9 9 9 9 9 9 9 8 8 8 8 7 7 7 7 6 6 5 5 4 4 4 4 5 5 6 6 7 8 9 10 10 11 12 13 13
12 11 9 8 6 6 6 7 8 8 9 10 11 10 10 9 9 9 8 8 8 7 6 6 6 6 6 6 6 7 7 7 7 8 8 8 8 8 8 8 8 8 8 8 8 8 9 9 9 9 10 10 10 10 10 10 10 10 10 10 9 9 9 9 8 8 7 7 6 6 6 5 5 5 5 5 5 5 5 6 6 6 7 8 8 9
9 8 7 7 6 6 7 9 10 10 10 10 10 9 9 8 8 8 7 6 6 6 6 6 6 6 6 7 7 7 8 8 8 8 8 8 8 8 8 8 8 8 8 8 8 8 8 9 9 9 9 10 10 10 10 11 11 11 11 11 11 11 11 11 11 10 10 9 9 8 7 7 6 6 5 5 5 5 5 5 5 5 5 5 6 6
7 6 6 7 7 8 8 9 9 10 9 9 8 8 8 8 7 7 6 6 6 6 6 6 7 7 7 7 8 8 8 9 9 9 9 9 8 8 8 8 8 8 8 8 8 8 8 9 9 9 9 9 10 10 10 11 11 11 12 12 12 12 12 13 13 13 12 12 12 11 11 10 9 9 8 7 6 6 5 5 5 5 5 5 5 5
6 6 7 8 8 9 9 9 9 9 8 8 8 7 7 7 6 6 6 6 6 6 6 6 7 7 8 8 9 9 9 9 9 9 9 9 9 9 8 8 8 8 8 8 8 9 9 9 9 9 9 10 10 10 10 10 10 11 11 11 11 12 12 12 13 13 13 13 14 14 13 13 13 12 12 11 10 9 8 7 6 6 5 5 5 5
7 7 8 8 8 9 9 8 8 8 7 7 7 7 7 6 6 6 6 5 5 6 6 7 8 8 9 9 9 9 9 9 9 9 9 9 9 9 8 8 8 8 8 8 9 9 9 9 9 9 9 9 9 10 10 10 10 10 10 10 10 10 10 10 11 11 12 12 13 13 13 14 14 14 15 14 14 13 12 11 10 9 8 7 6 6
8 8 8 8 8 8 8 8 8 7 7 6 6 6 6 6 6 6 6 6 6 7 7 8 8 9 9 9 9 9 9 9 9 9 9 9 9 9 8 8 8 8 8 8 8 8 8 8 9 9 9 9 9 9 9 9 9 9 9 8 8 9 9 9 9 9 9 10 10 10 11 11 12 13 14 14 15 15 15 15 14 13 12 11 10 9
8 8 8 8 8 8 7 8 7 7 6 6 6 6 5 5 6 6 6 7 8 9 9 8 8 9 9 9 9 9 9 9 9 9 9 9 9 9 9 9 9 9 8 8 8 8 8 8 8 8 8 8 8 8 8 8 8 8 8 8 8 8 8 8 8 8 8 8 8 8 9 9 9 10 10 11 13 14 15 15 16 16 15 14 14 13
8 8 8 8 8 7 7 7 7 7 7 7 7 7 6 6 5 5 6 8 9 9 9 9 8 8 9 9 9 9 9 9 9 9 9 9 9 9 9 9 9 9 9 9 9 8 8 8 8 8 8 8 8 8 8 8 8 8 8 8 8 8 8 8 8 8 8 8 8 8 8 8 8 8 8 9 9 10 11 13 14 15 15 15 15 15
7 7 7 7 7 7 8 7 7 7 7 7 7 8 8 8 7 7 7 7 8 8 8 9 9 9 9 9 10 10 9 9 9 9 9 9 9 9 9 9 9 9 9 9 9 9 9 8 8 8 8 8 8 8 8 8 8 8 8 8 8 8 8 8 8 8 8 8 8 8 8 8 8 8 8 8 8 8 9 10 10 11 12 13 14 15
7 6 7 6 7 7 8 8 8 8 8 8 8 8 9 8 8 8 8 8 8 8 8 9 9 10 10 10 10 9 10 10 9 9 9 9 9 9 10 10 9 9 9 9 9 9 9 9 9 9 8 8 8 8 8 8 8 8 8 8 8 8 8 8 8 8 8 9 9 9 9 9 9 9 8 8 8 8 8 8 9 9 10 10 11 12
6 6 6 7 7 8 8 8 8 8 9 9 8 8 7 7 7 8 9 9 10 10 10 10 10 10 11 10 10 9 10 10 10 9 9 9 9 10 10 10 10 9 9 9 9 9 9 9 9 9 9 9 9 9 8 8 8 8 8 9 9 9 9 9 9 9 9 9 9 9 9 9 9 9 9 9 9 9 9 9 9 9 9 9 10 10
7 7 7 8 8 8 9 9 8 8 8 8 8 8 7 7 8 8 9 10 11 11 11 11 10 10 10 10 10 10 10 10 10 10 10 9 9 9 9 9 9 9 9 9 9 9 9 9 9 9 9 9 9 9 9 9 9 9 9 9 9 9 9 9 9 9 9 9 9 9 9 9 9 10 10 10 10 10 10 10 10 9 10 10 10 10
7 7 8 8 9 9 9 9 9 9 9 8 8 8 8 8 9 9 10 10 10 10 10 11 11 10 10 10 10 9 9 9 9 9 9 9 9 8 9 9 9 9 9 9 9 10 9 10 10 10 10 9 9 9 9 9 9 9 9 9 9 9 9 9 9 9 9 9 9 9 9 9 9 9 9 10 10 10 10 10 10 10 10 10 10 10
8 8 9 9 9 9 9 9 9 9 9 9 8 8 8 9 9 10 10 10 10 10 10 10 10 10 10 10 9 9 9 9 9 9 8 8 8 8 8 9 9 9 9 9 10 10 10 10 10 10 10 10 10 10 10 10 10 10 10 10 10 10 10 10 10 10 10 10 10 10 9 9 9 9 9 9 10 10 10 10 10 10 11 11 11 11
9 9 9 10 10 10 10 9 9 9 9 9 9 9 9 9 9 10 10 10 10 10 11 10 10 9 9 9 9 9 8 8 8 8 8 8 8 8 8 9 9 9 9 9 10 10 10 10 10 10 10 10 10 10 10 11 11 11 11 11 11 11 11 11 11 11 11 11 10 10 10 10 10 9 9 9 9 9 10 10 10 10 11 11 11 11
9 9 9 10 10 9 9 9 9 9 9 9 9 9 9 9 9 9 9 9 10 10 10 10 10 9 9 9 8 8 8 8 8 7 8 8 8 8 8 9 9 9 9 9 10 10 10 10 10 10 10 10 10 11 11 11 11 11 11 11 11 11 11 11 11 11 11 11 11 11 11 11 11 10 10 10 9 9 9 9 9 9 10 10 10 11
9 9 9 10 9 9 9 9 9 9 9 9 9 9 9 9 9 9 9 9 10 10 9 9 9 9 9 8 8 7 7 7 7 7 8 8 8 8 8 9 9 9 9 10 10 10 10 10 10 10 10 10 10 10 10 11 11 11 11 11 11 11 11 11 11 11 11 11 11 11 11 11 11 11 11 10 10 10 9 9 9 9 9 9 10 10
9 9 9 9 9 9 9 9 9 9 9 9 8 8 8 8 8 9 9 9 9 9 9 9 9 8 8 8 8 7 7 7 7 8 8 8 8 8 8 9 9 9 9 9 10 10 10 10 10 10 10 10 10 10 10 10 10 10 10 10 10 10 11 11 11 11 11 11 11 11 11 12 11 11 11 11 11 11 11 10 10 10 9 9 9 10
10 10 9 9 9 9 9 9 9 9 9 8 9 9 9 8 9 9 9 9 9 9 9 9 9 8 7 7 7 7 6 7 8 8 8 8 8 8 8 9 9 9 9 9 9 9 10 10 10 10 10 10 10 10 10 10 10 10 10 10 10 10 10 10 10 10 10 11 11 11 11 11 12 12 12 12 12 12 12 12 11 11 11 11 10 10
10 10 9 9 9 9 9 9 9 9 8 8 9 9 8 8 9 9 9 8 8 8 8 8 8 7 7 7 7 7 7 8 8 8 7 8 9 9 9 9 9 9 9 9 9 9 9 9 9 9 9 9 9 9 9 9 9 9 9 9 9 9 10 10 10 10 10 11 11 11 11 11 12 12 12 13 13 13 13 13 13 12 12 12 12 11
10 10 10 9 9 9 9 9 9 9 9 9 9 9 8 8 8 8 8 8 8 8 8 8 7 7 7 8 8 8 8 8 8 8 8 9 9 9 8 8 9 9 9 9 9 9 9 9 10 9 9 9 9 9 9 9 9 9 9 9 9 9 9 9 10 10 10 10 11 11 11 12 12 12 12 13 13 13 13 13 13 13 13 13 12 12
10 10 10 10 9 9 9 9 9 9 9 9 9 9 9 9 9 8 8 8 8 8 8 8 8 8 8 8 8 8 8 8 8 8 9 10 9 8 8 8 9 9 10 9 9 8 9 9 10 9 9 9 9 9 9 9 9 9 9 9 9 9 9 9 10 10 10 10 11 11 11 11 12 12 12 12 12 13 13 13 13 13 13 13 13 13
10 10 10 10 10 10 9 9 9 9 9 9 9 9 9 9 9 9 8 9 9 9 9 9 9 9 8 8 8 8 8 8 8 9 9 10 9 9 9 9 9 9 9 9 9 9 9 9 9 9 9 9 9 9 9 9 9 9 9 9 9 9 9 10 10 10 10 10 11 11 11 11 12 12 12 12 12 13 13 13 13 13 13 14 14 14
10 10 10 10 10 10 10 10 10 10 10 10 10 10 10 10 9 9 9 10 10 10 9 9 9 9 7 8 8 8 8 8 9 9 9 9 9 9 9 9 9 9 9 9 8 8 9 9 9 9 9 9 9 9 9 9 9 9 9 9 9 10 10 10 10 10 10 10 11 11 11 11 12 12 12 12 12 12 13 13 13 13 13 14 14 14
10 11 11 11 11 11 11 11 11 11 11 11 11 11 11 10 10 10 11 11 10 10 9 10 10 9 9 9 10 9 8 8 9 9 9 9 9 9 9 9 9 9 9 9 8 8 8 8 8 8 9 8 8 8 9 9 9 9 9 10 10 10 10 10 10 10 10 11 11 11 11 11 12 12 12 12 12 12 12 13 13 13 13 14 14 14
10 10 10 10 10 11 11 11 11 12 12 12 12 12 12 11 11 12 12 11 11 11 11 11 10 10 10 10 10 9 8 9 9 9 8 9 10 10 9 8 8 9 8 9 8 8 8 9 9 8 9 8 8 8 8 9 9 9 10 10 10 10 10 10 10 11 11 11 11 11 11 11 11 12 12 12 12 12 12 12 13 13 13 14 14 14
9 9 9 10 10 10 11 11 11 12 12 12 12 12 12 12 12 13 12 12 12 12 12 12 11 11 11 10 9 9 9 10 9 9 8 9 10 10 8 8 9 9 8 8 8 8 10 10 9 8 8 8 8 8 8 8 9 9 9 10 10 10 10 11 11 11 11 11 11 11 11 11 11 11 12 12 12 12 12 12 13 13 13 14 14 14
9 9 9 10 10 10 10 10 11 11 11 12 12 12 12 13 13 13 12 12 12 12 12 12 12 11 11 10 10 10 10 10 10 9 8 10 10 9 8 9 9 9 7 7 7 8 10 10 10 9 8 8 8 8 8 8 9 9 9 9 9 10 10 10 11 11 11 11 11 11 11 11 11 11 11 11 12 12 12 12 12 13 13 13 14 14
8 9 9 9 10 10 10 10 10 11 11 11 11 12 12 12 12 12 12 12 12 12 12 12 11 11 11 10 10 10 10 10 9 9 9 10 10 9 8 8 9 9 8 7 7 7 8 9 9 9 8 8 9 9 8 8 8 8 8 8 9 9 10 10 10 10 11 11 11 11 11 11 11 11 11 11 11 12 12 12 12 12 12 13 13 13
7 8 8 8 9 9 9 9 10 10 10 11 11 11 11 11 11 12 12 12 12 12 12 12 12 11 11 11 11 10 9 9 9 9 10 10 10 9 9 9 8 8 8 9 9 8 7 7 7 8 9 9 9 9 9 9 9 9 9 9 9 10 9 10 10 10 11 11 11 11 11 11 11 11 11 11 11 11 11 11 12 12 12 12 12 13
7 7 7 7 7 8 8 8 8 9 9 10 10 11 11 11 11 11 11 11 11 11 11 12 12 12 11 12 12 11 10 10 10 10 10 10 10 9 9 9 9 8 8 9 10 11 10 9 7 7 10 10 9 9 8 9 9 9 9 9 9 9 9 9 10 10 11 11 11 12 12 12 12 12 12 11 11 11 11 11 11 11 11 12 12 12
7 7 7 7 7 7 7 7 8 8 9 9 10 11 11 11 12 12 11 11 11 11 11 11 11 11 11 11 11 11 11 11 11 10 10 10 10 9 8 9 9 8 8 9 9 10 12 10 9 8 9 9 9 9 9 9 9 9 9 9 9 9 9 9 10 10 11 11 11 12 12 12 12 12 12 12 12 11 11 11 11 11 11 11 11 12
7 7 7 7 7 7 7 7 8 8 8 9 10 10 11 11 12 12 12 12 11 11 11 11 11 11 11 10 10 10 11 11 10 9 9 10 10 9 9 10 10 9 9 9 8 8 10 10 10 9 8 8 9 10 10 9 8 8 9 9 9 9 9 9 10 10 10 11 11 12 12 12 13 13 13 12 12 12 11 11 11 11 11 11 11 11
7 7 7 7 7 7 7 7 8 8 8 9 9 10 10 11 11 12 12 12 12 11 11 11 12 12 12 11 11 10 10 10 9 9 10 11 10 10 10 11 10 8 9 9 9 9 9 9 9 9 9 9 9 9 10 9 9 9 9 9 10 10 9 9 9 10 10 11 11 12 12 12 13 13 13 13 13 12 12 11 11 10 10 11 11 12
6 7 7 7 7 7 7 8 8 8 8 8 9 9 9 10 10 11 11 11 12 12 12 11 11 12 12 13 13 12 10 9 10 10 10 11 11 11 11 10 9 9 9 9 9 8 8 8 8 9 11 10 9 7 7 7 8 10 10 10 9 9 9 9 9 10 10 11 11 11 11 12 12 13 13 14 14 13 13 12 12 11 11 11 11 11
6 6 6 7 7 7 8 8 8 8 8 8 8 7 7 8 8 9 10 11 11 11 12 12 12 12 12 12 12 12 11 10 10 11 11 10 11 11 11 10 10 10 11 10 9 8 8 8 8 8 9 10 10 9 7 7 8 9 10 10 9 9 9 10 10 10 10 11 11 11 11 12 12 13 13 14 14 14 14 13 12 12 12 12 12 12
6 6 6 6 7 7 8 8 8 8 7 7 7 6 6 7 8 8 9 10 10 11 12 12 12 12 12 11 11 11 10 11 10 10 10 10 11 11 10 10 9 9 10 10 10 10 10 10 10 9 8 8 9 10 10 10 10 9 9 9 11 11 11 10 10 10 10 10 11 11 12 12 12 13 13 13 14 14 14 14 13 12 11 11 11 11
6 6 6 7 7 7 8 7 7 7 6 6 7 7 7 8 8 9 9 9 10 11 12 12 12 12 12 12 11 11 11 11 11 10 10 10 10 10 10 10 9 8 8 10 10 11 10 10 10 10 10 9 9 9 9 10 10 9 8 9 10 11 11 10 10 11 11 11 11 11 11 11 12 12 13 13 14 15 15 15 14 13 12 11 10 10
6 6 6 7 7 7 7 7 6 6 7 7 7 8 8 8 9 9 9 10 11 11 12 12 13 13 14 13 13 12 11 11 11 11 11 10 10 10 10 10 9 9 8 9 10 11 11 10 10 10 10 11 11 10 11 10 10 9 9 10 10 10 9 10 11 11 11 12 12 11 11 11 12 12 13 14 15 15 15 15 15 15 14 12 11 10
7 7 7 7 7 7 7 6 7 7 8 8 8 8 8 9 9 9 10 11 12 12 12 12 12 13 13 13 13 12 11 11 11 11 11 10 10 9 9 9 9 9 9 10 11 11 11 11 10 10 10 10 10 10 11 11 10 10 10 11 10 10 11 13 12 12 11 11 11 11 12 12 12 13 13 14 14 15 15 16 16 15 15 14 12 11
7 7 7 7 7 7 7 7 8 9 9 9 9 9 9 9 10 11 11 12 13 13 13 14 13 13 12 12 12 12 12 12 12 11 11 10 10 9 9 9 9 10 10 11 11 11 10 10 11 11 10 10 10 11 10 9 9 10 11 10 9 9 11 12 12 11 12 12 11 12 12 12 13 13 13 14 14 14 14 16 16 16 16 15 14 12
7 7 7 7 7 8 8 8 9 9 9 9 9 9 10 11 11 12 13 14 14 14 14 14 14 14 15 14 12 11 11 11 12 12 11 10 10 9 9 9 10 10 11 11 10 9 8 10 11 11 10 10 11 11 11 10 9 9 10 10 11 11 12 10 9 10 12 13 13 13 12 12 12 12 13 14 14 15 15 15 16 16 16 16 15 14
7 7 8 8 8 8 8 9 9 9 9 9 10 10 11 11 12 13 13 14 14 15 15 14 14 14 16 14 13 11 10 10 11 12 11 11 10 10 9 9 9 10 10 11 10 9 8 9 10 10 10 11 11 11 10 10 9 9 10 10 11 13 13 12 11 12 12 12 12 12 12 12 12 12 13 14 14 15 15 15 15 16 15 15 15 15
8 8 8 8 8 8 9 9 9 9 9 10 10 11 11 12 13 13 14 14 15 15 16 15 15 15 15 13 12 11 10 10 11 11 11 10 10 10 10 10 10 9 9 10 10 10 10 10 9 9 9 11 11 11 11 9 9 9 10 10 11 12 13 13 13 13 12 12 12 12 11 11 12 13 14 14 14 15 15 15 15 15 15 15 15 15
8 8 8 8 8 9 9 9 9 9 9 10 11 11 12 13 13 14 15 15 15 15 15 15 16 17 15 13 12 11 11 10 10 10 10 9 9 9 9 10 10 10 10 9 9 10 11 11 11 10 10 10 10 10 10 10 10 10 10 10 11 11 12 13 13 13 12 13 12 12 11 11 12 13 14 14 14 14 15 15 15 15 15 14 14 14
8 8 8 8 8 8 9 9 9 9 10 10 11 12 13 14 14 15 15 16 16 15 15 15 15 16 15 14 13 12 11 11 10 9 9 9 9 9 9 9 9 9 10 10 10 10 10 11 11 11 10 10 9 9 9 9 10 10 10 10 11 12 13 13 12 12 12 13 13 12 11 11 12 12 12 13 14 15 15 15 15 15 14 14 14 14
8 8 8 8 8 8 8 8 9 9 10 10 11 13 14 15 16 16 15 15 15 15 15 15 14 14 14 13 13 12 12 11 10 10 9 9 8 8 9 9 8 8 9 10 10 11 11 12 12 12 11 10 10 9 9 9 9 10 10 11 11 12 13 13 13 12 12 12 12 12 12 13 13 12 12 13 14 14 15 15 15 15 14 14 13 13
8 8 8 8 8 8 9 8 8 9 10 11 12 13 14 15 16 16 16 15 15 15 15 14 13 13 13 12 11 11 11 11 10 10 9 8 8 8 8 8 8 8 9 9 10 10 10 11 11 12 13 12 11 9 8 8 8 9 10 12 12 12 13 13 13 12 12 12 11 11 11 12 13 13 13 14 14 14 15 15 15 15 14 14 13 13
8 8 8 8 9 9 9 8 9 9 10 12 13 14 14 14 15 15 14 14 14 14 14 14 13 13 12 11 11 11 10 10 10 10 9 8 8 8 9 8 8 9 9 9 9 10 9 8 9 10 13 13 12 10 8 7 7 8 10 12 12 12 13 14 13 12 12 12 11 11 11 12 12 12 13 13 13 14 14 15 16 15 14 14 13 13
Height
3093 3093 3093 3092 3092 3092 3092 3091 3091 3091 3090 3090 3089 3089 3089 3088 3088 3088 3088 3087 3087 3086 3086 3085 3085 3084 3084 3083 3083 3082 3082 3081 3081 3080 3080 3079 3079 3078 3078 3078 3077 3076 3076 3075 3075 3074 3074 3073 3073 3072 3072 3071 3071 3070 3070 3069 3069 3068 3068 3068 3067 3067 3067 3066 3066 3066 3065 3065 3064 3064 3063 3063 3063 3063 3062 3062 3062 3062 3061 3061 3061 3061 3060 3060 3060 3060
3092 3092 3091 3091 3091 3091 3090 3090 3090 3089 3089 3089 3088 3088 3088 3087 3087 3087 3086 3086 3086 3085 3085 3084 3084 3083 3083 3082 3081 3081 3080 3080 3079 3079 3078 3078 3078 3077 3076 3076 3075 3075 3074 3074 3073 3073 3072 3072 3071 3071 3070 3070 3069 3069 3068 3068 3068 3067 3066 3066 3066 3065 3065 3064 3064 3064 3063 3063 3063 3063 3062 3062 3062 3062 3061 3061 3061 3061 3061 3060 3060 3060 3060 3059 3059 3059
3090 3090 3090 3090 3090 3089 3089 3089 3088 3088 3088 3087 3087 3087 3086 3086 3086 3085 3085 3084 3084 3084 3083 3083 3083 3082 3081 3080 3080 3079 3079 3079 3078 3078 3077 3077 3076 3075 3075 3074 3074 3073 3073 3072 3072 3071 3071 3070 3070 3069 3068 3068 3068 3067 3067 3066 3066 3065 3065 3064 3064 3063 3063 3063 3062 3062 3062 3062 3061 3061 3061 3061 3060 3060 3060 3060 3060 3060 3060 3059 3059 3059 3059 3059 3058 3058
3089 3089 3089 3089 3088 3088 3088 3088 3087 3087 3086 3086 3086 3085 3085 3085 3084 3084 3083 3083 3083 3082 3082 3082 3081 3081 3080 3079 3078 3078 3078 3077 3077 3076 3076 3075 3075 3074 3073 3073 3072 3072 3071 3071 3070 3069 3069 3068 3068 3067 3067 3066 3066 3065 3065 3064 3064 3063 3063 3063 3062 3062 3061 3061 3060 3060 3060 3060 3059 3059 3059 3059 3059 3059 3058 3058 3058 3058 3058 3058 3058 3058 3058 3058 3058 3057
3088 3088 3088 3088 3087 3087 3087 3086 3086 3085 3085 3085 3084 3084 3084 3083 3083 3083 3082 3082 3081 3081 3080 3080 3079 3079 3078 3078 3077 3076 3076 3075 3075 3075 3074 3073 3073 3072 3072 3071 3070 3070 3069 3069 3068 3068 3067 3067 3066 3065 3065 3064 3064 3063 3063 3063 3062 3062 3061 3061 3060 3060 3059 3059 3059 3058 3058 3058 3058 3058 3057 3057 3057 3057 3057 3057 3057 3057 3057 3057 3057 3057 3057 3056 3056 3056
3087 3087 3087 3086 3086 3085 3085 3085 3084 3084 3084 3083 3083 3083 3082 3082 3081 3081 3080 3080 3079 3079 3078 3078 3078 3078 3077 3076 3076 3075 3074 3074 3073 3073 3073 3072 3071 3070 3070 3069 3069 3068 3068 3067 3066 3066 3065 3065 3064 3064 3063 3063 3062 3062 3061 3061 3060 3060 3059 3059 3058 3058 3058 3057 3057 3057 3056 3056 3056 3055 3055 3055 3055 3055 3055 3055 3055 3055 3055 3055 3055 3055 3055 3055 3055 3054
3085 3085 3085 3085 3085 3084 3084 3083 3083 3083 3083 3083 3082 3082 3081 3080 3080 3079 3079 3078 3078 3078 3077 3077 3076 3076 3076 3075 3074 3073 3073 3072 3072 3071 3071 3070 3070 3069 3068 3068 3067 3067 3066 3065 3065 3064 3064 3063 3063 3062 3062 3061 3061 3060 3060 3059 3059 3058 3058 3057 3057 3056 3056 3056 3055 3055 3054 3054 3054 3053 3053 3053 3053 3053 3053 3053 3053 3053 3053 3053 3053 3053 3053 3053 3053 3053
3084 3084 3084 3083 3083 3083 3083 3082 3082 3082 3082 3081 3081 3080 3080 3079 3078 3078 3077 3077 3076 3076 3076 3075 3075 3074 3074 3073 3073 3072 3072 3071 3071 3070 3070 3069 3068 3068 3067 3066 3066 3065 3065 3064 3063 3063 3063 3062 3061 3061 3060 3060 3059 3059 3058 3058 3057 3057 3056 3056 3055 3055 3054 3054 3053 3053 3053 3053 3052 3052 3052 3051 3051 3051 3051 3051 3050 3050 3050 3050 3050 3050 3050 3050 3050 3051
3083 3082 3082 3082 3082 3082 3081 3081 3081 3080 3080 3080 3079 3079 3078 3078 3077 3077 3076 3075 3075 3074 3074 3073 3073 3073 3073 3072 3072 3071 3070 3070 3069 3069 3068 3068 3067 3067 3066 3065 3064 3064 3063 3063 3062 3062 3061 3060 3060 3059 3059 3058 3058 3057 3057 3056 3056 3055 3054 3054 3053 3053 3053 3052 3052 3052 3051 3051 3050 3050 3050 3049 3049 3049 3049 3048 3048 3048 3048 3048 3048 3048 3048 3048 3048 3048
3081 3081 3081 3081 3081 3080 3080 3080 3079 3079 3078 3078 3078 3077 3077 3076 3076 3075 3075 3074 3074 3073 3072 3072 3071 3071 3071 3070 3070 3069 3069 3068 3068 3067 3067 3066 3066 3065 3065 3064 3063 3063 3062 3061 3061 3060 3059 3059 3058 3058 3057 3057 3056 3056 3055 3054 3054 3053 3053 3053 3052 3052 3051 3051 3050 3050 3049 3049 3049 3048 3048 3048 3047 3047 3047 3047 3047 3046 3046 3046 3046 3046 3046 3046 3046 3046
3080 3080 3079 3079 3079 3079 3079 3078 3078 3078 3077 3077 3076 3076 3075 3075 3074 3073 3073 3073 3073 3073 3072 3071 3070 3069 3069 3069 3068 3068 3068 3067 3066 3066 3065 3065 3064 3064 3063 3063 3062 3061 3061 3060 3059 3059 3058 3057 3057 3056 3055 3055 3054 3054 3053 3053 3052 3052 3051 3051 3050 3050 3049 3049 3048 3048 3048 3048 3047 3047 3046 3046 3046 3045 3045 3045 3044 3044 3044 3044 3044 3044 3044 3044 3044 3044
3078 3078 3078 3078 3078 3078 3077 3077 3076 3076 3075 3075 3074 3074 3073 3073 3072 3072 3072 3071 3071 3071 3071 3070 3069 3068 3068 3067 3067 3066 3066 3065 3065 3064 3063 3063 3063 3062 3062 3061 3060 3060 3059 3058 3058 3057 3057 3056 3055 3054 3054 3053 3053 3052 3052 3051 3050 3050 3049 3049 3048 3048 3048 3047 3047 3046 3046 3046 3045 3045 3044 3044 3044 3043 3043 3043 3043 3042 3042 3042 3042 3042 3042 3042 3042 3042
3077 3077 3077 3076 3076 3076 3075 3075 3075 3074 3074 3073 3073 3073 3072 3071 3071 3070 3070 3069 3069 3069 3069 3068 3068 3067 3066 3065 3065 3064 3064 3064 3063 3063 3062 3061 3061 3060 3060 3059 3058 3058 3057 3057 3056 3055 3055 3054 3053 3053 3052 3051 3051 3050 3050 3049 3049 3048 3048 3047 3047 3046 3046 3045 3045 3044 3044 3044 3043 3043 3043 3042 3042 3042 3041 3041 3040 3040 3040 3040 3039 3039 3039 3039 3039 3039
3075 3075 3075 3075 3075 3074 3074 3073 3073 3073 3072 3072 3071 3071 3070 3070 3069 3069 3068 3068 3068 3067 3067 3066 3066 3066 3065 3064 3063 3063 3062 3062 3062 3061 3060 3059 3059 3058 3058 3058 3057 3056 3055 3055 3054 3054 3053 3053 3052 3051 3050 3050 3049 3048 3048 3048 3047 3047 3046 3046 3045 3045 3044 3044 3043 3043 3042 3042 3041 3041 3041 3040 3040 3039 3039 3039 3038 3038 3038 3038 3037 3037 3037 3037 3037 3037
3073 3073 3073 3073 3073 3073 3073 3072 3072 3071 3071 3070 3069 3069 3069 3068 3068 3067 3067 3066 3066 3065 3065 3065 3064 3064 3063 3063 3062 3061 3061 3060 3060 3059 3058 3058 3057 3057 3056 3056 3055 3054 3054 3053 3053 3052 3051 3051 3050 3049 3049 3048 3047 3047 3046 3046 3045 3045 3044 3044 3043 3043 3042 3042 3041 3041 3040 3040 3039 3039 3038 3038 3038 3037 3037 3037 3036 3036 3036 3035 3035 3035 3035 3034 3034 3034
3072 3072 3072 3071 3071 3071 3071 3070 3070 3069 3069 3068 3068 3067 3067 3066 3066 3066 3065 3065 3064 3064 3063 3063 3063 3062 3062 3061 3060 3059 3059 3059 3058 3058 3057 3056 3055 3055 3054 3054 3053 3053 3052 3051 3051 3050 3050 3049 3048 3048 3047 3046 3046 3045 3044 3044 3043 3043 3043 3042 3041 3041 3040 3040 3039 3039 3038 3038 3038 3037 3037 3036 3036 3035 3035 3034 3034 3034 3033 3033 3033 3033 3033 3032 3032 3032
3070 3070 3070 3069 3069 3069 3069 3068 3068 3068 3067 3066 3066 3065 3065 3065 3064 3064 3063 3063 3063 3062 3062 3062 3061 3060 3060 3059 3059 3058 3057 3057 3057 3056 3055 3054 3053 3053 3053 3052 3052 3051 3050 3050 3049 3048 3048 3047 3047 3046 3045 3044 3044 3043 3043 3042 3042 3041 3041 3040 3039 3039 3038 3038 3038 3037 3036 3036 3035 3035 3034 3034 3033 3033 3033 3032 3032 3032 3031 3031 3031 3031 3030 3030 3030 3030
3068 3068 3068 3068 3068 3067 3067 3067 3066 3066 3065 3064 3064 3064 3063 3063 3062 3062 3062 3061 3061 3061 3060 3060 3059 3058 3058 3058 3057 3056 3056 3055 3055 3054 3053 3053 3052 3051 3051 3050 3050 3049 3049 3048 3048 3047 3046 3046 3045 3044 3043 3043 3042 3042 3041 3041 3040 3039 3039 3038 3038 3037 3037 3036 3035 3035 3034 3034 3033 3033 3033 3032 3032 3031 3031 3030 3030 3029 3029 3029 3028 3028 3028 3028 3028 3028
3067 3066 3066 3066 3065 3065 3065 3064 3064 3064 3063 3063 3062 3062 3061 3061 3060 3060 3060 3059 3059 3059 3058 3058 3057 3057 3056 3056 3055 3055 3054 3053 3053 3053 3052 3051 3050 3049 3049 3048 3048 3048 3047 3046 3046 3045 3044 3044 3043 3043 3042 3041 3041 3040 3039 3039 3038 3038 3037 3036 3036 3035 3035 3034 3033 3033 3033 3032 3032 3031 3030 3030 3029 3029 3028 3028 3028 3028 3027 3027 3026 3026 3026 3026 3025 3025
3065 3064 3064 3063 3063 3063 3063 3063 3062 3062 3061 3061 3060 3060 3059 3059 3058 3058 3058 3057 3057 3057 3056 3056 3055 3055 3054 3054 3053 3053 3052 3052 3051 3051 3050 3049 3048 3048 3047 3047 3046 3046 3045 3044 3044 3043 3043 3042 3041 3041 3040 3039 3039 3038 3038 3037 3036 3036 3035 3034 3034 3033 3033 3032 3032 3031 3031 3030 3029 3029 3028 3028 3028 3027 3027 3026 3026 3025 3025 3024 3024 3024 3023 3023 3023 3023
3063 3063 3062 3062 3061 3061 3061 3060 3060 3060 3059 3059 3058 3058 3057 3057 3057 3056 3056 3055 3055 3055 3054 3054 3053 3053 3052 3052 3051 3051 3050 3050 3049 3049 3048 3048 3047 3046 3045 3045 3044 3044 3043 3042 3042 3041 3041 3040 3039 3039 3038 3037 3037 3036 3036 3035 3034 3034 3033 3033 3032 3031 3031 3030 3030 3029 3028 3028 3028 3027 3026 3026 3025 3025 3024 3024 3023 3023 3023 3022 3022 3022 3021 3021 3021 3021
3061 3061 3061 3060 3059 3059 3059 3058 3058 3058 3057 3057 3056 3056 3055 3055 3054 3054 3054 3053 3053 3053 3052 3052 3051 3051 3050 3050 3049 3048 3048 3048 3047 3047 3046 3046 3045 3044 3043 3043 3043 3042 3041 3040 3040 3039 3039 3038 3037 3037 3036 3035 3035 3034 3033 3033 3032 3032 3031 3030 3030 3029 3028 3028 3028 3027 3026 3026 3025 3025 3024 3024 3023 3023 3022 3022 3021 3021 3021 3020 3020 3019 3019 3019 3019 3018
3059 3059 3059 3058 3058 3057 3057 3057 3056 3056 3055 3054 3054 3053 3053 3053 3053 3052 3052 3051 3051 3051 3050 3050 3049 3049 3048 3048 3047 3046 3046 3045 3045 3045 3044 3044 3043 3042 3042 3041 3040 3040 3039 3038 3038 3037 3037 3036 3035 3034 3034 3033 3033 3032 3031 3031 3030 3029 3029 3028 3028 3027 3026 3026 3025 3025 3024 3024 3023 3023 3022 3022 3021 3021 3020 3020 3019 3019 3018 3018 3018 3017 3017 3017 3017 3016
3058 3058 3057 3056 3056 3055 3055 3054 3054 3053 3053 3053 3052 3052 3051 3051 3050 3050 3050 3049 3049 3049 3048 3048 3048 3047 3046 3046 3045 3044 3044 3043 3043 3042 3042 3042 3041 3040 3039 3039 3038 3038 3037 3036 3036 3035 3034 3034 3033 3033 3032 3031 3030 3030 3029 3028 3028 3027 3027 3026 3025 3025 3024 3023 3023 3022 3022 3021 3021 3020 3020 3019 3019 3018 3018 3017 3017 3017 3016 3016 3016 3015 3015 3015 3014 3014
3056 3055 3055 3054 3054 3053 3053 3053 3052 3052 3051 3050 3050 3049 3049 3048 3048 3048 3047 3047 3047 3047 3046 3046 3045 3044 3044 3043 3043 3043 3042 3041 3040 3040 3039 3039 3039 3038 3037 3037 3036 3035 3035 3034 3033 3033 3032 3032 3031 3030 3029 3029 3028 3028 3027 3026 3026 3025 3024 3024 3023 3022 3022 3021 3020 3020 3019 3019 3018 3018 3017 3017 3016 3016 3015 3015 3014 3014 3014 3013 3013 3013 3013 3012 3012 3012
3054 3054 3053 3053 3052 3051 3051 3050 3050 3049 3049 3048 3048 3048 3047 3047 3046 3046 3045 3045 3045 3044 3044 3044 3043 3043 3042 3041 3041 3040 3040 3039 3038 3038 3037 3037 3036 3036 3035 3035 3034 3033 3033 3032 3031 3031 3030 3030 3029 3028 3028 3027 3026 3025 3025 3024 3024 3023 3022 3022 3021 3020 3019 3018 3018 3017 3017 3016 3016 3015 3015 3014 3014 3013 3013 3013 3012 3012 3011 3011 3011 3010 3010 3010 3010 3009
3053 3052 3051 3051 3050 3050 3049 3048 3048 3047 3047 3046 3046 3045 3045 3044 3044 3043 3043 3043 3043 3042 3042 3042 3041 3041 3040 3039 3038 3038 3038 3037 3036 3035 3035 3034 3034 3033 3033 3032 3032 3031 3030 3030 3029 3028 3028 3028 3027 3026 3025 3025 3024 3023 3023 3022 3022 3021 3020 3019 3019 3018 3017 3016 3016 3015 3014 3013 3013 3013 3012 3012 3011 3011 3010 3010 3010 3009 3009 3008 3008 3008 3008 3007 3007 3007
3051 3050 3050 3049 3048 3048 3047 3046 3046 3045 3045 3044 3044 3043 3043 3043 3042 3041 3041 3040 3040 3040 3040 3039 3039 3038 3038 3037 3036 3036 3035 3035 3034 3033 3033 3032 3032 3031 3031 3030 3030 3029 3028 3028 3027 3026 3026 3025 3025 3024 3023 3022 3022 3021 3021 3020 3020 3019 3018 3018 3017 3016 3015 3014 3013 3013 3012 3011 3011 3010 3009 3009 3009 3008 3008 3008 3007 3007 3006 3006 3006 3005 3005 3005 3005 3004
3049 3048 3048 3047 3047 3046 3045 3044 3044 3043 3043 3042 3042 3041 3041 3040 3040 3039 3039 3038 3038 3038 3037 3037 3037 3036 3036 3035 3034 3033 3033 3033 3032 3031 3031 3030 3030 3029 3028 3028 3027 3027 3026 3026 3025 3024 3023 3023 3022 3021 3021 3020 3019 3018 3018 3018 3017 3017 3016 3016 3015 3014 3013 3012 3011 3010 3010 3009 3008 3008 3007 3007 3006 3006 3005 3005 3004 3004 3004 3003 3003 3003 3003 3003 3002 3002
3047 3047 3046 3045 3045 3044 3043 3043 3042 3041 3041 3040 3040 3039 3039 3038 3038 3037 3037 3036 3036 3035 3035 3034 3034 3034 3033 3033 3032 3031 3030 3030 3029 3029 3028 3028 3028 3027 3026 3026 3025 3024 3024 3023 3023 3022 3021 3021 3020 3019 3018 3018 3017 3016 3015 3015 3015 3014 3014 3013 3013 3012 3011 3011 3009 3008 3008 3007 3006 3005 3005 3004 3004 3003 3003 3003 3002 3002 3001 3001 3001 3001 3000 3000 3000 3000
3045 3045 3044 3043 3043 3042 3041 3041 3040 3039 3039 3038 3038 3037 3037 3036 3035 3035 3034 3034 3033 3033 3033 3032 3032 3031 3031 3030 3030 3029 3028 3028 3027 3027 3026 3026 3025 3025 3024 3023 3023 3022 3022 3021 3021 3020 3020 3019 3018 3017 3016 3015 3014 3014 3013 3013 3012 3012 3011 3011 3010 3010 3009 3009 3008 3007 3006 3005 3004 3003 3003 3002 3001 3001 3000 3000 2999 2999 2999 2998 2998 2998 2998 2998 2998 2998
3044 3043 3043 3042 3041 3040 3039 3039 3038 3038 3037 3036 3035 3035 3034 3034 3033 3033 3032 3032 3031 3031 3030 3030 3029 3029 3028 3028 3028 3027 3026 3026 3025 3025 3024 3023 3023 3022 3022 3021 3020 3020 3019 3019 3018 3018 3018 3017 3016 3015 3014 3013 3012 3011 3010 3010 3009 3009 3008 3008 3008 3007 3007 3006 3006 3005 3004 3003 3002 3001 3000 3000 2999 2998 2998 2998 2997 2997 2996 2996 2996 2996 2995 2995 2995 2995
3043 3042 3041 3040 3040 3039 3038 3038 3037 3036 3035 3034 3033 3033 3032 3032 3031 3030 3030 3029 3029 3028 3028 3028 3027 3027 3026 3026 3025 3024 3024 3023 3023 3023 3022 3021 3021 3020 3019 3019 3018 3018 3017 3016 3016 3016 3015 3015 3014 3013 3013 3011 3010 3009 3008 3008 3007 3006 3006 3005 3005 3004 3004 3004 3003 3003 3002 3001 3000 2999 2999 2998 2997 2996 2996 2995 2995 2994 2994 2993 2993 2993 2993 2993 2993 2993
3041 3040 3040 3039 3038 3038 3037 3036 3035 3034 3034 3033 3032 3031 3030 3030 3029 3028 3028 3027 3027 3026 3026 3025 3025 3024 3024 3023 3023 3022 3021 3021 3021 3020 3019 3019 3018 3018 3017 3017 3016 3015 3015 3014 3013 3013 3013 3012 3012 3011 3011 3010 3008 3007 3006 3005 3004 3004 3003 3003 3002 3002 3001 3001 3001 3000 2999 2999 2998 2998 2997 2996 2995 2994 2993 2993 2992 2992 2991 2991 2991 2990 2990 2990 2990 2990
3039 3038 3038 3037 3037 3036 3035 3034 3034 3033 3032 3031 3030 3029 3029 3028 3027 3026 3026 3025 3024 3024 3023 3023 3022 3022 3021 3021 3020 3020 3019 3018 3018 3018 3017 3017 3016 3015 3015 3014 3013 3013 3013 3012 3011 3011 3010 3010 3009 3009 3008 3008 3007 3005 3004 3003 3002 3002 3001 3000 3000 2999 2999 2998 2998 2998 2997 2996 2996 2995 2994 2994 2993 2992 2992 2991 2990 2990 2989 2989 2988 2988 2988 2988 2988 2988
3037 3036 3036 3035 3034 3034 3033 3033 3032 3031 3030 3029 3028 3028 3027 3026 3025 3024 3024 3023 3022 3022 3021 3020 3020 3019 3019 3018 3018 3017 3016 3016 3015 3015 3014 3014 3013 3013 3013 3012 3011 3011 3010 3010 3009 3009 3008 3008 3007 3007 3006 3006 3005 3003 3002 3001 3000 2999 2999 2998 2997 2997 2996 2996 2995 2995 2994 2994 2993 2993 2992 2991 2991 2990 2989 2989 2988 2988 2987 2987 2986 2986 2985 2985 2985 2985
3035 3034 3033 3033 3032 3032 3031 3030 3030 3029 3028 3028 3027 3026 3025 3024 3023 3022 3022 3021 3020 3019 3019 3018 3018 3017 3016 3016 3015 3015 3014 3013 3013 3013 3012 3012 3011 3011 3010 3010 3009 3008 3008 3007 3007 3006 3006 3006 3005 3004 3004 3003 3003 3002 3001 2999 2998 2998 2997 2996 2995 2994 2993 2993 2993 2992 2991 2991 2990 2990 2989 2989 2988 2988 2987 2987 2986 2986 2985 2984 2984 2983 2983 2983 2983 2983
3033 3032 3031 3031 3030 3029 3029 3028 3028 3027 3026 3025 3024 3023 3023 3022 3021 3020 3019 3018 3018 3017 3016 3016 3015 3014 3014 3013 3013 3012 3011 3011 3010 3010 3009 3009 3008 3008 3008 3007 3007 3006 3005 3005 3004 3004 3003 3003 3003 3002 3002 3001 3000 3000 2998 2998 2997 2995 2994 2993 2993 2992 2991 2990 2989 2989 2988 2988 2988 2987 2987 2986 2986 2985 2985 2984 2984 2983 2983 2982 2982 2981 2981 2980 2980 2980
3030 3030 3029 3028 3028 3027 3027 3026 3025 3025 3024 3023 3022 3021 3020 3019 3019 3018 3017 3016 3015 3015 3014 3013 3013 3012 3011 3011 3010 3009 3008 3008 3008 3007 3007 3006 3006 3006 3005 3005 3004 3003 3003 3002 3002 3001 3001 3000 3000 3000 2999 2999 2998 2997 2996 2995 2994 2993 2993 2992 2990 2989 2988 2988 2987 2986 2986 2985 2985 2984 2984 2983 2983 2983 2982 2982 2981 2981 2981 2980 2979 2979 2978 2978 2978 2978
3028 3028 3027 3026 3026 3025 3024 3024 3023 3022 3021 3020 3020 3019 3018 3017 3016 3016 3015 3014 3013 3012 3011 3011 3010 3009 3009 3008 3008 3007 3006 3006 3005 3004 3004 3004 3003 3003 3003 3002 3002 3001 3001 3000 2999 2999 2998 2998 2997 2997 2996 2996 2995 2995 2994 2993 2992 2991 2990 2990 2989 2988 2986 2985 2984 2983 2983 2982 2982 2981 2981 2980 2980 2980 2979 2979 2979 2978 2978 2978 2977 2977 2976 2976 2976 2976
3026 3025 3025 3024 3024 3023 3022 3022 3021 3020 3019 3018 3017 3016 3015 3014 3014 3013 3012 3011 3011 3010 3009 3008 3008 3007 3006 3006 3005 3004 3003 3003 3003 3002 3002 3001 3001 3000 3000 3000 2999 2999 2998 2998 2997 2996 2996 2995 2994 2994 2993 2993 2993 2992 2991 2990 2989 2988 2988 2987 2987 2986 2984 2983 2982 2981 2980 2979 2979 2978 2978 2977 2977 2977 2976 2976 2976 2975 2975 2975 2974 2974 2974 2973 2973 2973
3024 3023 3023 3022 3022 3021 3020 3019 3018 3017 3017 3016 3015 3014 3013 3012 3011 3011 3010 3009 3008 3007 3006 3006 3005 3004 3004 3003 3002 3002 3001 3001 3000 3000 2999 2999 2998 2998 2997 2997 2997 2996 2996 2995 2994 2994 2993 2993 2992 2991 2991 2990 2990 2989 2989 2988 2987 2986 2985 2985 2984 2983 2982 2981 2979 2978 2978 2977 2976 2975 2975 2974 2974 2973 2973 2973 2973 2973 2972 2972 2972 2971 2971 2971 2971 2971
3022 3021 3020 3020 3019 3018 3018 3017 3016 3015 3014 3013 3012 3011 3010 3009 3008 3008 3007 3006 3005 3005 3004 3003 3003 3002 3002 3001 3000 2999 2998 2998 2998 2997 2997 2996 2996 2995 2995 2994 2994 2993 2993 2993 2992 2991 2991 2990 2989 2989 2988 2988 2987 2987 2986 2985 2984 2983 2982 2982 2981 2981 2980 2978 2977 2976 2975 2974 2973 2973 2972 2971 2971 2971 2970 2970 2970 2969 2969 2969 2969 2968 2968 2968 2968 2968
3019 3018 3018 3018 3017 3016 3015 3014 3013 3013 3012 3011 3010 3008 3008 3007 3006 3005 3004 3003 3003 3002 3001 3001 3000 3000 2999 2998 2998 2997 2996 2996 2995 2995 2994 2994 2993 2993 2992 2992 2991 2991 2990 2990 2989 2989 2988 2988 2987 2986 2986 2985 2985 2984 2983 2983 2982 2981 2980 2979 2978 2978 2977 2976 2975 2974 2973 2972 2971 2970 2969 2968 2968 2968 2968 2967 2967 2967 2966 2966 2966 2966 2965 2965 2965 2965
3017 3016 3015 3015 3014 3013 3013 3012 3011 3010 3009 3008 3007 3006 3005 3004 3003 3003 3002 3001 3000 2999 2999 2998 2998 2998 2997 2996 2996 2995 2994 2993 2993 2993 2992 2991 2991 2990 2989 2989 2988 2988 2988 2987 2987 2986 2986 2985 2985 2984 2983 2983 2982 2982 2981 2980 2979 2978 2977 2976 2976 2975 2974 2973 2972 2971 2970 2969 2968 2967 2966 2966 2965 2965 2965 2964 2964 2964 2963 2963 2963 2963 2963 2962 2962 2962
3014 3013 3013 3012 3012 3011 3010 3009 3008 3008 3007 3006 3005 3003 3003 3002 3001 3000 2999 2998 2998 2997 2996 2996 2995 2995 2995 2994 2993 2993 2992 2992 2991 2990 2990 2989 2988 2988 2987 2987 2986 2986 2985 2985 2984 2984 2983 2983 2982 2982 2981 2981 2980 2979 2978 2977 2976 2976 2975 2974 2973 2972 2971 2970 2969 2968 2968 2967 2966 2965 2964 2963 2963 2962 2962 2962 2962 2961 2961 2961 2960 2960 2960 2959 2959 2959
3012 3011 3010 3010 3009 3008 3007 3006 3006 3005 3004 3003 3002 3001 3000 2999 2998 2998 2997 2996 2995 2994 2993 2993 2993 2992 2992 2992 2991 2991 2990 2989 2989 2988 2988 2987 2986 2986 2985 2984 2984 2983 2983 2982 2982 2981 2981 2980 2980 2979 2979 2978 2978 2977 2976 2975 2974 2973 2972 2971 2971 2970 2969 2968 2967 2966 2965 2964 2963 2962 2961 2960 2960 2959 2959 2959 2959 2959 2958 2958 2958 2957 2957 2957 2956 2956
3009 3009 3008 3007 3006 3006 3005 3004 3003 3002 3001 3000 2999 2998 2997 2996 2996 2995 2994 2993 2993 2992 2991 2990 2990 2990 2989 2989 2988 2988 2988 2987 2987 2986 2986 2985 2984 2984 2983 2983 2982 2981 2980 2980 2979 2979 2978 2978 2977 2977 2976 2976 2975 2974 2973 2972 2971 2970 2970 2969 2968 2968 2967 2966 2964 2963 2963 2962 2960 2959 2958 2958 2957 2957 2956 2956 2956 2956 2956 2956 2955 2955 2954 2954 2953 2953
3007 3006 3005 3005 3004 3003 3002 3001 3000 2999 2998 2998 2997 2995 2994 2993 2993 2992 2991 2991 2990 2989 2988 2988 2988 2987 2987 2986 2986 2985 2985 2985 2984 2984 2983 2983 2982 2982 2981 2981 2980 2979 2978 2978 2977 2976 2976 2975 2975 2974 2974 2973 2972 2971 2971 2970 2969 2968 2967 2966 2965 2965 2964 2963 2962 2961 2960 2959 2958 2957 2956 2955 2954 2954 2953 2953 2953 2953 2953 2953 2953 2952 2952 2951 2951 2951
3004 3003 3003 3002 3001 3000 2999 2998 2998 2997 2996 2995 2994 2993 2992 2991 2990 2989 2988 2988 2987 2987 2986 2985 2985 2985 2984 2984 2983 2983 2982 2982 2982 2981 2980 2980 2979 2979 2978 2978 2978 2977 2976 2975 2975 2974 2974 2973 2973 2972 2971 2970 2969 2968 2968 2967 2967 2966 2965 2964 2963 2962 2961 2960 2959 2958 2958 2956 2955 2954 2953 2953 2952 2951 2950 2950 2950 2950 2950 2951 2950 2950 2949 2948 2948 2948
3002 3001 3000 2999 2998 2998 2997 2996 2995 2994 2993 2992 2991 2990 2989 2988 2987 2986 2986 2985 2984 2984 2983 2983 2983 2982 2982 2981 2981 2980 2980 2979 2979 2978 2978 2977 2977 2976 2975 2975 2974 2974 2973 2973 2972 2972 2971 2971 2971 2970 2969 2968 2966 2965 2965 2964 2964 2963 2962 2961 2960 2959 2958 2958 2957 2956 2955 2954 2953 2952 2951 2950 2949 2949 2948 2947 2947 2947 2947 2948 2948 2948 2947 2946 2945 2945